Regional Weather Roundup
Issued by NWS

Home | Current Version | Previous Version | Graphics & Text | Print | Product List | Glossary On
Versions: 1 2 3 4 5 6 7 8 9 10 11 12 13 14 15 16 17 18 19 20 21 22 23 24 25 26 27 28 29 30 31 32 33 34 35 36 37 38 39 40 41 42 43 44 45 46 47 48 49 50
000
ASUS45 KPSR 280710
RWRAZ

ARIZONA HOURLY REGIONAL WEATHER ROUNDUP
NATIONAL WEATHER SERVICE PHOENIX AZ
1200 AM MST SAT MAY 28 2016

NOTE: FAIR INDICATES FEW OR NO CLOUDS BELOW 12,000 FEET WITH NO
SIGNIFICANT WEATHER AND/OR OBSTRUCTIONS TO VISIBILITY.

AZZ001>003-036-280800-
NORTHWEST ARIZONA

CITY           SKY/WX    TMP DP  RH WIND       PRES   REMARKS
KINGMAN        CLEAR     69  28  21 S12       29.90R
$$

AZZ004>008-015-016-018-280800-
NORTH CENTRAL ARIZONA

CITY           SKY/WX    TMP DP  RH WIND       PRES   REMARKS
GRAND CANYON   CLEAR     37  23  56 CALM      30.08R
WILLIAMS       CLEAR     45  27  49 SE7       30.15S
PRESCOTT       MOCLDY    60  26  27 VRB3      30.00S
FLAGSTAFF      CLEAR     42  28  57 SW3       30.10S
PAYSON         CLEAR     57  27  30 N3        30.04S
PAGE           CLEAR     65  32  29 CALM      29.93R
$$

AZZ009>014-017-280800-
NORTHEAST ARIZONA

CITY           SKY/WX    TMP DP  RH WIND       PRES   REMARKS
WINSLOW        MOCLDY    59  28  30 S5        29.99S
SAINT JOHNS    PTCLDY    58  25  28 SW12      30.02S
WINDOW ROCK    CLEAR     45  22  40 CALM      30.07R
SHOW LOW       CLEAR     50  23  34 S10       30.09S
$$

AZZ023-280800-
GREATER PHOENIX AREA

CITY           SKY/WX    TMP DP  RH WIND       PRES   REMARKS
PHOENIX        CLEAR     80  34  19 CALM      29.76S
BUCKEYE        CLEAR     72  28  20 W3        29.80R
LUKE AFB       CLEAR     76  36  23 N6        29.76S
DEER VALLEY    CLEAR     75  29  18 NE8       29.79S
SCOTTSDALE     CLEAR     78  33  19 N3        29.81S
MESA-GATEWAY   CLEAR     72  27  18 E7        29.80S
$$

AZZ027-028-280800-
SOUTHWEST MARICOPA COUNTY AND PINAL COUNTY

CITY           SKY/WX    TMP DP  RH WIND       PRES   REMARKS
CASA GRANDE    CLEAR     70  27  19 CALM      29.81R
GILA BEND      FAIR      75  29  18 SE7       29.77S
$$

AZZ503-504-507>509-280800-
SOUTHEAST ARIZONA

CITY           SKY/WX    TMP DP  RH WIND       PRES   REMARKS
TUCSON         CLEAR     71  26  18 SW3       29.89R
DAVIS-MONTHAN  CLEAR     67  25  20 SW5       29.88R
NOGALES        CLEAR     63  22  20 CALM      29.96R
SIERRA VISTA   CLEAR     63  19  18 SW8       30.00S
DOUGLAS        CLEAR     55  16  21 SE5       29.97R
SAFFORD        CLEAR     66  22  18 NW6       29.88R
$$

AZZ020-021-025-026-031-280800-
SOUTHWEST ARIZONA

CITY           SKY/WX    TMP DP  RH WIND       PRES   REMARKS
YUMA           CLEAR     75  41  29 S5        29.75S
$$

CAZ031-033-041-043-047-048-061-280800-
SOUTHERN CALIFORNIA

CITY           SKY/WX    TMP DP  RH WIND       PRES   REMARKS
DOWNTOWN L.A.  MOCLDY    61  54  77 CALM      29.88F
L.A. AIRPORT   CLOUDY    60  55  83 CALM      29.88F
SAN DIEGO      CLOUDY    63  55  75 W3        29.90F
BURBANK        CLEAR     58  54  86 S3        29.87F
ONTARIO        CLEAR     59  53  80 CALM      29.88F
RIVERSIDE      CLEAR     61  54  77 CALM      29.89F
PALM SPRINGS   CLEAR     76  49  38 VRB5      29.77S
EL CENTRO NAS  CLEAR     74  44  34 SW7       29.74F
IMPERIAL       CLEAR     75  40  28 SW7       29.72F
BLYTHE         CLEAR     81  38  21 SW6       29.75S
NEEDLES        PTCLDY    84  35  17 SW15      29.74S
$$

NVZ020-UTZ003-280800-
SOUTHERN NEVADA-UTAH

CITY           SKY/WX    TMP DP  RH WIND       PRES   REMARKS
LAS VEGAS      CLEAR     79  25  13 SW5       29.75S
SALT LAKE CITY PTCLDY    55  45  68 W6        29.96R
$$

NMZ009-TXZ055-280800-
NEW MEXICO-WEST TEXAS

CITY           SKY/WX    TMP DP  RH WIND       PRES   REMARKS
ALBUQUERQUE    PTCLDY    61  26  26 NW7       29.99R
EL PASO        CLEAR     63  15  15 CALM      29.92S
$$


........................KEY........................
SKY/WX - SKY CONDITION/WEATHER
TMP    - TEMPERATURE IN FAHRENHEIT
DP     - DEW POINT IN FAHRENHEIT
RH     - RELATIVE HUMIDITY IN PERCENT
WIND   - DIRECTION AND SPEED IN MILES PER HOUR (MPH)
VRB    - VARIABLE WIND DIRECTION
PRES   - MEAN SEA LEVEL PRESSURE IN INCHES OF MERCURY
         F - FALLING PRESSURE   R - RISING PRESSURE
         S - STEADY PRESSURE
VSB    - VISIBILITY IN MILES
HX     - HEAT INDEX IN FAHRENHEIT
WCI    - WIND CHILL INDEX IN FAHRENHEIT
TC     - TEMPERATURE IN CELSIUS WHICH IS ALSO KNOWN AS
         TEMPERATURE IN CENTIGRADE
AFB    - AIR FORCE BASE
         LUKE AFB IS LUKE AIR FORCE BASE
         DAVIS-MONTHAN IS DAVIS-MONTHAN AIR FORCE BASE
NAS    - NAVAL AIR STATION
         EL CENTRO NAS IS EL CENTRO NAVAL AIR STATION
N/A    - NOT AVAILABLE




USA.gov is the U.S. government's official web portal to all federal, state and local government web resources and services.